Location: Eschertshofen
(49.3064°N, 11.5756°E)
Time: 15:06:16
(UTC+00:00)

USA 234 - Pass Details

Date: 18 September 2020
Orbit: 1102 x 1106 km, 123.0° (Epoch: 16 October)

Event Time Altitude Azimuth Distance (km) Brightness Sun altitude
Rises 20:16:00 0° 56° (NE) 3,927 6.0 -27.3°
Enters shadow 20:16:06 - 56° (NE) 3,888 6.0 -27.3°
Exits shadow 20:19:21 15° 57° (ENE) 2,635 5.1 -27.7°
Maximum altitude 20:25:03 89° 332° (NNW) 1,110 3.1 -28.4°
Drops below altitude 10° 20:31:37 10° 239° (WSW) 2,960 5.7 -29.2°
Sets 20:34:05 0° 240° (WSW) 3,916 6.3 -29.5°
